Location: Sternwarte_Laufen
(47.9344°N, 12.9346°E)
Time: 18:00:28
(UTC+02:00)

ISS - Pass Details

Date: 18 May 2018
Orbit: 402 x 407 km, 51.6° (Epoch: 23 May)

Event Time Altitude Azimuth Distance (km) Brightness Sun altitude
Exits shadow 03:20:59 - 289° (WNW) 2,015 -0.4 -16.0°
Reaches altitude 10° 03:22:23 10° 294° (WNW) 1,459 -1.1 -15.8°
Maximum altitude 03:25:32 46° 9° (N) 556 -2.7 -15.5°
Drops below altitude 10° 03:28:42 10° 84° (E) 1,457 -0.4 -15.2°
Sets 03:30:50 0° 91° (E) 2,316 0.5 -15.0°
